AirNav   ProFlight Series 2 Aviation Headset
 
 1471 users online  

58FL A I M Heliport
Boca Raton, Florida, USA

GOING TO BOCA RATON?


FAA INFORMATION EFFECTIVE 16 JULY 2020

Location

FAA Identifier: 58FL
Lat/Long: 26-24-56.2710N 080-11-29.1650W
26-24.937850N 080-11.486083W
26.4156308,-80.1914347
(estimated)
Elevation: 20 ft. / 6 m (estimated)
Variation: 03W (1985)
From city: 8 miles W of BOCA RATON, FL
Time zone: UTC -4 (UTC -5 during Standard Time)
Zip code: 33496

Heliport Operations

Heliport use: Private use. Permission required prior to landing
Activation date: 04/1982
Control tower: no
ARTCC: MIAMI CENTER
FSS: MIAMI FLIGHT SERVICE STATION
Attendance: UNATNDD
Wind indicator: yes
Segmented circle: no

Heliport Communications

WX AWOS-3 at BCT (5 nm SE): 121.125 (561-391-2696)
WX ASOS at PMP (11 nm SE): PHONE 954-783-3720
WX AWOS-3PT at LNA (12 nm NE): 119.925 (561-964-0308)
WX ASOS at FXE (13 nm S): PHONE 954-772-2537
WX ASOS at PBI (17 nm N): 123.75 (561-683-2548)

Nearby radio navigation aids

VOR radial/distance  VOR name  Freq  Var
PBIr203/16.8PALM BEACH VORTAC115.7003W
FLLr002/20.5FORT LAUDERDALE VOR/DME114.4006W
PHKr129/34.7PAHOKEE VOR/DME115.4000E
DHPr017/37.9DOLPHIN VORTAC113.9004W
VKZr001/39.9VIRGINIA KEY VOR/DME117.1004W

 
NDB name  Hdg/Dist  Freq  Var  ID
UNITED170/30.640505WUTX ..- - -..-

Heliport Services

Runway Information

Helipad H1

Dimensions: 60 x 60 ft. / 18 x 18 m
Surface: turf, in fair condition
Latitude: 26-24.937850N
Longitude: 080-11.486083W
Elevation: 20.0 ft.
Traffic pattern: leftleft
Markings: none, in fair condition

Heliport Ownership and Management from official FAA records

Ownership: Privately-owned
Owner: A.I.M. INVESTMENT
8780 HORSESHOE LANE
BOCA RATON, FL 33434
Phone 305-482-1010
Manager: ALUIN MALNIK
8780 HORSESHOE LAND
BOBA RATON, FL 33434
Phone 305-482-1010

Heliport Operational Statistics

Aircraft based on the field: 1
Helicopters: 1
    

Additional Remarks

A52-H1 TV ANTENNA-M 265' EAST OF HELIPAD.
FOR CD CTC PALM BEACH APCH AT 561-275-1430

Instrument Procedures

There are no published instrument procedures at 58FL.

Some nearby airports with instrument procedures:

KBCT - Boca Raton Airport (5 nm SE)
KPMP - Pompano Beach Airpark (11 nm SE)
KLNA - Palm Beach County Park Airport (12 nm NE)
KFXE - Fort Lauderdale Executive Airport (13 nm S)
KPBI - Palm Beach International Airport (17 nm N)
 
Loc | Ops | Rwys | IFR | FBO | Links
Com | Nav | Svcs | Stats | Notes

Reliance Aviation
AirBoss

 
Area around 58FL (A I M Heliport)
 
Road maps at: MapQuest Bing Google
 
Aerial photo
No photo
 
Sectional chart

 
Airport distance calculator
Flying to A I M Heliport? Find the distance to fly.

From to 58FL

Sunrise and sunset
Times for 07-Aug-2020
 Local
(UTC-4)
 Zulu
(UTC)
Morning civil twilight06:2610:26
Sunrise06:5010:50
Sunset20:0200:02
Evening civil twilight20:2700:27

Current date and time
Zulu (UTC)  07-Aug-2020 15:26:47
Local (UTC-4)  07-Aug-2020 11:26:47
 
METAR
KBCT 
5nm E 
071450Z 14005KT 10SM SCT025 33/25 A3010
KPMP 
11nm S 
071453Z 10008KT 10SM CLR 23/ A3009 RMK AO2 SLP191 T0233 51009
KLNA 
12nm NE 
071515Z AUTO 00000KT 10SM CLR 31/26 A3011 RMK AO2 T03070256 PNO
KFXE 
13nm S 
071453Z 10007KT 10SM SCT029 SCT038 31/25 A3009 RMK AO2 SLP191 T03110250 51008
KPBI 
17nm N 
071453Z 01004KT 10SM SCT020CB SCT040 SCT250 29/25 A3011 RMK AO2 SLP195 CB N MOV NE T02940250 51011
TAF
KFXE 
13nm S 
071121Z 0712/0812 VRB03KT P6SM FEW025 SCT110 FM071600 09008KT P6SM VCTS SCT025CB BKN045 FM080200 VRB03KT P6SM FEW040 SCT100
KPBI 
17nm N 
071224Z 0712/0812 VRB03KT P6SM SCT025 SCT110 TEMPO 0713/0716 VRB10KT P6SM -TSRA BKN050CB FM071600 09008KT P6SM VCTS SCT025CB BKN045 FM080200 VRB04KT P6SM FEW040 SCT100
NOTAMs
Click for the latest NOTAMs
NOTAMs are issued by the DoD/FAA and will open in a separate window not controlled by AirNav.

 

 
 

Would you like to see your business listed on this page?

 If your business provides an interesting product or service to pilots, flight crews, aircraft, or users of the A I M Heliport, you should consider listing it here.  To start the listing process, click on the button below
 
Add a business
 

Other Pages about A I M Heliport

Update a link
 
Copyright © AirNav, LLC. All rights reserved. Privacy Policy  Contact